GFSCGP_sfc_thetae_099.txt.gz
Theta_e
294 287 285 287 293 295 294 293 292 295 300 299 297 297 300 301 299 299 303 303 304 310 320 319 319 319 317 318 321 319 320 321 320 320 320 320 322 324 324 325 326 325 324 322
291 286 291 293 293 294 294 292 291 295 299 299 297 296 300 301 301 301 300 300 304 316 317 317 317 317 315 318 320 320 321 320 321 320 320 321 323 325 324 325 325 324 322 319
292 294 296 293 291 291 291 291 291 292 297 300 297 295 296 302 302 303 305 304 306 315 315 316 316 315 315 318 319 320 320 319 321 320 320 320 321 321 321 323 322 321 321 319
295 299 296 292 290 292 288 294 295 295 294 288 298 286 294 299 301 303 304 305 303 315 316 316 315 314 314 318 320 321 321 320 321 318 319 318 317 316 318 320 322 319 320 319
291 294 293 293 294 294 291 295 295 295 293 290 292 289 291 299 299 301 300 302 304 316 315 315 315 315 315 317 318 320 321 320 321 320 318 318 317 317 318 317 317 318 318 320
291 296 294 293 297 297 298 295 295 295 291 285 291 290 287 294 299 302 304 305 305 315 315 317 316 316 315 317 318 320 320 319 320 320 319 318 315 315 313 315 315 315 317 318
288 289 293 296 291 295 294 290 283 283 281 281 293 290 291 298 302 303 304 305 306 315 315 315 315 315 315 316 318 319 319 319 320 320 318 317 315 314 313 314 314 314 314 316
282 281 289 294 291 291 292 291 284 279 280 284 294 289 292 303 305 306 307 306 312 314 315 315 315 315 316 316 316 318 318 319 320 320 319 318 316 314 314 314 314 314 314 315
286 286 297 294 294 295 292 288 294 289 290 285 289 293 299 303 304 306 304 306 309 313 314 314 315 316 316 316 316 316 316 318 320 320 320 318 317 315 314 314 313 314 315 316
293 287 295 297 295 294 294 297 288 290 281 279 286 290 291 297 300 305 305 304 308 314 314 315 314 316 317 317 316 316 317 317 318 320 320 319 318 317 316 315 314 315 314 315
292 290 291 295 290 290 291 290 291 292 288 281 280 286 299 300 301 301 303 305 306 310 314 315 315 316 318 317 317 316 316 316 316 318 320 320 318 317 317 315 315 317 316 316
291 289 287 290 295 297 295 291 290 285 283 287 286 286 302 302 303 303 304 306 306 306 312 315 316 316 317 317 317 317 317 317 317 317 319 319 318 317 316 316 316 317 316 316
289 286 283 287 290 294 293 295 296 291 289 285 281 285 302 303 302 304 304 306 305 307 307 314 317 316 317 316 317 317 318 317 318 318 317 318 318 316 315 316 317 317 317 315
294 286 283 280 285 289 286 289 294 291 284 285 285 289 297 300 301 302 301 303 304 306 304 309 316 317 316 317 318 318 318 318 318 318 318 317 318 318 316 317 317 318 318 317
289 283 286 287 288 287 286 286 289 288 290 288 290 291 296 299 300 300 301 305 306 307 308 307 306 316 318 317 317 318 318 318 318 318 318 317 317 319 318 318 318 318 319 320
290 284 287 285 289 288 285 287 287 288 289 288 289 289 295 298 300 298 305 306 306 308 310 311 311 311 313 319 318 318 318 318 319 318 318 319 319 319 318 318 318 317 318 319
288 285 283 281 287 286 281 286 287 288 289 288 284 290 295 294 299 302 302 303 304 306 308 309 309 310 311 313 320 318 318 319 318 317 318 319 319 319 319 319 318 317 315 316
287 285 285 281 284 275 287 293 292 289 292 293 295 297 298 299 301 302 303 303 304 306 308 308 308 309 310 312 312 320 320 319 318 317 317 318 320 319 319 319 318 313 302 297
289 287 281 279 278 284 287 291 292 291 291 296 295 297 297 299 301 299 303 304 305 306 307 307 308 309 311 310 311 310 318 319 318 317 316 317 318 318 317 308 297 295 292 290
288 288 283 281 277 274 289 294 296 294 287 297 297 296 296 296 289 294 301 303 305 306 306 305 307 309 307 306 308 309 309 314 315 316 316 316 316 314 300 295 292 290 288 286
281 282 280 280 280 284 293 295 297 283 286 297 298 297 296 293 295 299 302 305 306 304 304 304 304 305 303 303 301 298 299 298 300 298 300 299 297 295 292 290 289 287 286 285
281 280 279 281 277 277 296 295 290 294 295 295 297 296 296 297 298 299 303 303 301 298 299 300 300 300 299 299 297 294 293 294 296 296 295 293 293 292 291 288 286 285 285 283
282 286 284 284 283 293 297 297 300 298 296 295 296 296 296 295 296 301 301 298 295 293 293 295 296 297 296 295 294 292 292 292 292 291 290 290 290 289 288 286 284 284 284 283
290 294 288 288 292 294 296 299 300 299 298 299 298 297 299 299 300 299 296 293 290 290 290 291 293 292 291 291 291 291 291 290 289 288 287 287 286 286 286 285 285 284 283 282
290 293 290 290 293 294 297 298 299 299 300 299 298 299 299 299 295 294 291 290 289 286 286 286 285 289 289 289 289 289 288 288 285 284 283 282 282 281 280 281 283 282 282 281
292 291 288 287 295 294 295 299 301 300 298 297 297 297 293 293 291 291 288 287 285 283 283 283 283 284 285 288 287 287 287 285 283 282 281 280 279 279 279 278 278 281 280 281

GFSCGP_sfc_thetae_105.txt.gz
Theta_e
290 284 283 287 290 292 291 289 288 290 296 293 291 292 294 295 296 296 298 298 298 300 314 316 317 317 316 316 316 316 315 316 318 320 319 319 321 322 324 327 325 326 323 322
289 284 287 289 289 290 290 289 288 291 294 294 292 292 295 295 297 298 298 299 298 307 311 315 315 315 315 315 315 315 315 317 318 319 317 319 321 323 322 325 326 324 322 318
286 290 294 289 287 286 285 286 287 289 293 292 289 288 291 295 298 300 301 302 299 307 311 314 315 314 314 314 314 315 317 317 318 320 319 319 319 322 321 322 325 322 320 318
288 292 292 288 286 286 282 288 288 288 287 282 290 281 289 294 296 298 300 300 299 307 313 315 315 313 314 314 314 315 318 315 316 318 318 318 317 318 321 321 323 324 321 320
284 291 290 289 291 288 285 290 287 287 284 281 285 284 285 293 293 296 300 300 300 307 312 314 315 314 314 313 315 316 316 314 315 318 318 317 319 321 321 319 318 321 322 321
286 291 293 293 295 293 292 288 287 286 284 278 284 284 283 287 293 296 299 301 301 304 311 314 315 313 313 314 313 315 316 316 315 316 319 319 318 319 320 318 316 318 320 319
284 286 288 291 286 289 289 285 278 278 278 278 287 286 288 293 296 298 301 303 303 302 310 313 311 311 313 313 313 314 315 314 316 317 318 318 318 319 319 319 317 315 317 319
278 277 286 289 288 284 285 285 280 276 277 280 288 283 287 296 300 303 305 304 305 306 309 313 312 312 312 313 314 315 314 314 316 315 317 317 317 318 319 319 318 317 317 319
280 280 288 289 291 290 286 283 289 283 284 281 284 288 293 298 300 302 302 304 303 311 312 312 312 312 312 313 313 316 315 315 316 315 316 316 317 317 317 318 318 318 318 318
287 282 290 293 290 289 288 291 283 284 278 277 281 283 285 292 297 301 301 302 304 305 311 312 311 312 313 313 314 315 316 315 316 316 315 315 315 316 317 317 317 317 317 317
287 285 286 291 288 285 284 285 287 287 283 280 277 280 291 293 298 299 302 304 305 305 306 310 313 313 313 313 313 314 315 315 316 317 316 315 315 315 314 316 316 316 316 316
287 284 280 286 293 293 290 286 287 282 281 283 281 281 296 297 300 301 303 306 306 305 308 311 313 313 314 315 314 312 313 316 316 318 317 315 316 315 313 314 315 315 315 316
288 283 278 283 287 291 287 288 291 289 287 283 279 281 299 298 298 301 303 306 306 307 307 310 313 313 314 315 315 315 312 313 315 317 317 316 314 314 313 312 311 313 315 315
291 285 281 277 280 289 285 285 290 288 282 283 282 287 295 298 299 301 303 304 305 307 306 306 310 311 315 316 315 315 315 314 313 314 315 315 315 314 314 313 311 312 312 312
287 281 283 285 287 288 287 285 286 287 286 282 285 286 293 297 297 301 304 304 305 305 305 305 305 310 311 312 316 316 316 315 314 313 313 314 315 315 316 313 312 312 313 312
290 282 284 282 287 287 286 287 287 288 289 289 290 286 296 299 300 300 302 305 304 304 305 305 305 307 308 308 309 311 316 316 316 314 313 314 316 315 314 314 313 312 312 312
286 284 282 277 284 283 280 285 287 287 290 291 286 291 297 296 297 299 300 302 302 303 304 304 304 305 305 304 306 306 309 316 317 316 316 315 315 315 315 315 315 313 311 312
283 283 283 280 281 273 285 292 292 291 292 292 293 296 297 296 297 298 301 303 302 303 302 302 303 304 303 302 302 304 306 310 317 316 316 316 315 315 316 314 314 314 313 310
286 283 279 278 278 281 285 290 288 289 289 295 293 295 296 297 297 297 304 303 302 301 300 301 302 303 299 299 299 300 301 303 305 315 316 317 316 316 315 314 313 309 302 298
284 283 281 278 274 270 282 290 293 294 284 296 296 295 295 296 289 292 302 301 298 297 297 296 297 299 295 295 297 298 298 298 298 300 305 315 317 316 314 314 302 295 295 290
277 278 277 276 273 279 288 292 294 282 285 296 296 295 294 290 291 298 299 295 295 293 293 294 295 294 292 294 296 296 295 293 295 297 299 300 311 314 308 299 296 292 288 286
279 275 271 275 273 273 291 292 285 290 294 296 294 294 293 296 297 295 294 291 289 289 289 290 292 291 291 292 292 292 290 292 293 293 292 292 294 296 298 294 290 288 286 284
280 282 279 280 279 287 292 293 297 296 293 293 293 296 298 296 293 293 289 288 287 286 287 288 289 290 290 290 289 288 289 290 290 289 288 288 288 289 290 290 288 286 286 285
286 290 284 283 286 290 293 296 297 297 295 297 298 298 295 292 291 289 288 286 284 285 285 286 286 286 287 288 288 287 287 288 287 285 286 286 285 285 285 286 286 285 284 282
286 286 288 287 291 293 295 296 297 298 297 294 293 293 292 291 290 288 286 284 283 283 283 284 284 285 285 286 286 286 286 285 283 282 282 281 281 281 281 281 282 282 282 282
288 286 285 284 290 292 294 294 299 297 295 293 291 289 288 288 286 285 283 282 282 281 282 282 282 283 283 283 283 284 285 284 282 281 281 280 280 280 280 280 280 282 282 283

GFSCGP_sfc_thetae_108.txt.gz
Theta_e
289 283 282 285 287 288 288 287 286 287 293 291 291 292 292 294 294 293 295 296 298 298 304 312 313 316 318 318 319 319 318 316 320 321 320 322 322 323 324 325 326 324 324 325
287 283 286 287 287 288 288 286 286 289 293 293 292 292 295 293 293 295 296 297 298 298 306 313 312 314 318 319 318 317 318 317 320 321 320 321 320 323 323 325 325 324 325 324
284 287 293 289 285 285 286 286 286 287 289 291 287 287 289 292 293 296 297 298 299 300 301 310 312 313 315 317 316 317 316 318 318 316 319 318 320 322 321 322 323 324 323 321
285 290 289 287 286 286 282 287 288 286 284 279 287 279 284 289 292 296 298 298 298 299 302 308 312 312 315 317 316 314 317 317 316 316 316 315 317 318 320 321 324 323 321 318
284 285 285 285 287 287 284 288 286 285 282 279 281 278 281 289 290 294 297 298 300 298 300 306 312 314 316 315 314 316 318 316 314 314 317 316 316 319 321 318 321 318 318 318
284 288 289 288 290 290 289 286 285 284 282 276 281 280 279 283 289 295 300 302 305 304 300 307 312 313 314 314 315 316 315 315 313 314 318 316 315 319 319 317 317 317 317 318
281 283 286 290 286 290 288 284 278 276 275 276 283 281 283 289 293 299 299 302 303 309 301 307 310 311 313 313 314 314 316 315 315 314 318 317 317 320 318 317 317 318 317 317
275 274 283 287 286 284 286 286 279 276 276 278 286 279 285 293 299 302 303 303 304 304 308 308 310 310 313 313 313 315 315 315 316 317 317 318 319 320 320 318 317 318 319 318
278 278 285 287 288 288 284 282 287 281 282 279 281 285 292 296 298 300 301 303 302 305 305 308 310 311 313 313 313 314 314 315 315 315 317 317 317 318 319 319 318 318 320 320
286 281 289 289 288 288 286 289 281 281 276 275 278 281 284 291 296 299 299 300 302 305 306 309 311 310 313 313 315 315 314 314 315 315 315 316 317 317 318 318 318 317 318 319
286 284 285 289 285 282 282 282 284 284 281 277 276 279 289 290 295 297 300 302 303 303 305 311 312 312 313 314 314 315 314 314 315 315 313 311 312 317 317 317 317 317 317 318
288 283 280 284 291 291 287 284 285 280 279 281 280 280 295 296 298 299 300 304 304 304 304 309 313 313 312 312 314 315 315 316 316 316 315 312 312 313 312 316 316 317 316 317
287 282 278 280 286 289 285 286 289 286 284 281 278 280 296 298 298 300 301 303 304 304 304 306 310 313 314 313 313 314 315 315 317 318 315 312 311 312 312 314 315 316 316 316
290 285 280 277 280 285 283 285 285 285 280 281 281 286 293 295 296 299 301 303 305 304 305 304 306 309 311 315 315 314 312 313 314 316 316 315 311 312 313 312 312 314 315 315
288 281 283 284 286 287 287 286 285 285 284 281 283 283 288 297 297 298 302 304 304 304 305 304 305 304 306 308 312 315 314 313 313 313 314 315 315 315 314 313 311 312 313 314
289 279 284 280 284 283 284 286 285 287 287 287 286 286 295 298 300 300 303 303 303 304 304 304 305 303 303 303 305 307 309 314 314 312 312 314 315 314 314 313 312 311 311 311
284 282 279 277 282 282 278 284 286 287 289 288 283 289 296 295 298 299 300 301 302 303 302 302 303 303 301 301 301 302 305 308 314 313 313 313 314 314 313 313 312 311 311 312
282 281 281 279 281 272 284 291 289 289 291 290 292 294 296 296 298 299 302 301 301 300 300 299 299 300 298 298 298 300 303 304 306 314 315 314 314 314 314 313 313 312 311 310
284 282 277 277 277 280 283 289 288 287 288 293 294 294 296 299 300 299 300 300 297 296 296 296 297 297 295 295 297 299 299 300 301 301 307 315 315 314 314 313 313 312 310 306
283 283 279 278 275 272 282 288 292 293 283 296 296 295 296 297 289 294 296 296 294 293 293 293 295 294 293 293 295 296 296 295 295 296 298 301 306 314 312 313 311 301 303 293
278 277 276 276 275 280 286 290 292 281 283 295 297 296 296 291 292 296 294 291 291 290 289 291 293 291 291 291 292 292 291 290 293 293 294 295 297 307 314 310 299 296 290 287
279 276 272 275 272 273 288 290 285 290 293 296 295 294 296 296 294 292 290 288 286 286 288 289 290 290 290 289 289 288 287 289 291 291 290 290 290 292 297 298 293 290 288 285
276 283 280 280 278 286 290 291 295 296 293 293 293 298 297 295 292 290 288 287 286 286 286 286 286 288 287 288 287 286 286 287 288 287 287 287 287 288 289 289 288 287 287 285
286 287 283 283 286 288 292 294 296 297 295 296 296 295 293 290 289 288 287 285 284 284 283 284 285 285 284 286 286 285 286 285 284 283 282 283 283 284 285 285 285 285 285 284
286 286 285 285 289 291 292 293 295 295 294 292 292 292 290 288 287 287 285 284 283 281 283 284 283 283 282 283 283 284 284 284 282 282 282 281 281 282 281 282 282 282 283 284
289 285 283 284 290 291 290 292 295 292 291 291 289 286 286 286 285 284 282 282 281 280 281 281 280 280 281 280 280 281 282 282 281 280 281 281 281 281 281 280 281 284 283 284

GFSCGP_sfc_thetae_114.txt.gz
Theta_e
296 290 288 291 293 292 292 292 291 295 298 298 298 299 302 305 306 307 307 309 310 312 315 317 318 321 328 329 329 332 335 338 332 331 329 331 331 330 332 334 330 329 330 329
290 287 293 294 293 291 291 290 290 293 296 296 295 295 299 302 304 306 306 308 309 310 312 313 315 321 328 329 330 332 334 336 330 331 333 332 328 329 329 331 331 331 328 327
286 290 294 292 292 289 290 289 290 290 294 296 294 293 296 300 303 304 305 307 308 308 309 312 315 318 325 328 330 331 333 336 334 336 332 333 332 330 330 330 330 329 328 327
289 292 289 289 290 291 287 293 292 290 289 286 295 286 295 297 298 301 303 306 308 310 314 316 317 317 322 327 331 331 333 333 333 336 332 331 328 325 328 330 331 329 332 331
287 289 288 287 288 293 289 294 292 291 290 290 290 287 292 296 295 299 303 306 311 315 317 319 319 319 320 327 329 327 329 330 332 335 333 330 327 328 328 330 330 331 330 328
289 294 292 291 292 292 294 292 292 292 290 284 289 289 290 293 297 300 306 310 312 314 317 319 321 319 321 329 324 324 327 326 327 329 331 329 327 325 326 327 328 328 327 326
288 288 292 292 289 293 292 289 282 280 281 281 290 288 290 296 301 304 307 309 312 315 318 319 320 321 322 325 321 322 325 323 323 325 327 328 327 324 323 323 326 324 322 318
282 280 289 292 289 287 289 289 282 276 279 283 290 285 291 299 303 308 310 310 312 315 319 320 321 323 321 320 320 321 323 321 322 326 326 327 325 325 325 327 326 323 320 318
279 283 292 293 292 291 288 286 291 285 287 284 288 291 296 300 300 306 308 309 311 315 319 320 321 322 321 319 318 319 320 321 322 327 327 326 325 325 324 328 326 321 321 316
285 279 290 293 292 292 290 292 284 285 278 278 284 288 290 296 300 305 307 308 311 315 317 318 319 319 319 318 319 319 319 320 321 325 324 324 324 326 326 328 323 320 320 317
286 285 287 291 286 286 288 288 288 288 287 281 281 287 298 300 304 305 308 308 311 313 315 316 315 317 318 317 317 318 317 319 320 321 322 322 322 324 326 325 324 321 320 317
287 284 283 286 294 295 291 290 290 284 283 286 287 287 302 303 306 308 307 308 310 313 313 314 315 310 309 314 315 316 316 318 319 320 320 319 322 324 324 322 321 321 318 317
288 284 280 283 290 291 288 290 292 292 291 286 284 287 304 306 306 308 307 308 309 310 311 311 311 310 305 306 313 314 315 317 319 318 317 319 320 321 322 323 323 321 320 318
291 285 282 277 282 289 285 286 291 289 286 286 288 290 299 302 304 306 307 309 309 310 310 310 310 307 305 303 304 306 314 318 318 317 318 318 320 323 324 325 323 321 320 318
288 281 285 285 286 287 288 288 288 288 289 286 289 290 296 301 304 307 309 309 309 308 309 309 307 305 302 301 302 302 305 308 317 318 319 319 321 322 322 322 323 323 322 320
289 281 285 282 285 288 285 289 290 290 290 291 291 290 298 304 307 307 307 307 307 306 306 307 306 305 301 298 300 301 303 305 309 312 319 320 319 319 320 321 321 321 322 322
285 283 281 279 285 285 283 288 289 290 292 293 290 295 302 301 303 305 306 306 305 304 303 303 302 301 302 299 298 300 300 302 305 305 315 318 317 317 317 320 319 319 319 320
285 284 283 280 283 275 286 293 293 290 292 295 295 299 300 300 300 301 304 304 302 302 302 302 301 300 300 301 299 300 298 299 299 300 301 303 310 317 318 317 317 319 319 318
290 286 281 278 280 282 286 288 290 289 290 296 296 299 299 300 301 297 301 301 300 300 300 300 300 299 299 298 299 298 296 296 295 294 296 297 299 302 308 317 317 319 318 318
288 289 284 281 276 275 285 290 294 294 286 298 299 300 299 300 294 295 297 299 298 299 298 299 299 298 296 296 298 293 293 292 291 292 293 295 295 296 300 302 316 317 319 318
283 284 281 281 278 281 289 293 297 285 287 298 300 297 297 296 294 295 296 296 297 296 295 297 297 295 294 294 295 293 291 288 290 291 291 293 292 292 295 297 303 312 306 299
281 281 282 282 278 276 293 293 288 293 299 298 298 298 298 297 295 294 294 293 293 294 294 294 294 292 292 292 291 290 289 288 289 289 289 290 290 290 291 293 293 294 293 289
281 284 283 284 284 292 295 293 297 299 297 298 299 300 300 296 294 293 291 291 290 292 292 292 292 291 290 289 288 287 287 288 287 287 287 287 288 288 288 288 289 288 287 286
286 289 284 285 289 289 289 293 296 295 296 298 300 299 298 294 293 292 292 291 290 289 289 289 289 288 287 288 286 286 287 288 287 286 285 285 285 285 285 286 286 286 285 284
285 286 284 285 287 287 286 287 291 292 292 291 294 294 294 293 291 290 289 289 288 288 288 287 286 285 285 286 284 285 286 287 285 284 284 284 284 284 283 283 284 284 284 285
288 283 281 281 285 286 284 287 289 287 287 289 290 289 290 291 289 289 287 287 287 286 286 285 284 284 283 284 283 284 285 286 285 283 283 283 283 283 283 282 281 283 283 283

GFSCGP_sfc_thetae_117.txt.gz
Theta_e
297 292 290 293 294 293 291 290 289 294 300 298 298 299 302 306 308 308 309 310 313 314 317 319 320 321 322 326 328 329 332 340 343 340 338 335 333 333 334 336 336 338 338 336
292 289 293 295 295 293 292 289 290 294 296 296 296 296 302 303 304 307 308 309 311 312 314 316 318 320 323 323 329 330 333 337 340 337 335 337 337 336 337 335 335 335 334 335
289 292 295 292 291 291 291 290 290 290 293 296 295 293 296 300 303 304 306 308 310 311 312 313 315 317 320 324 329 330 333 335 339 333 335 337 336 334 331 330 332 334 333 331
290 293 291 290 289 291 288 294 292 290 289 286 295 286 294 299 301 303 305 307 308 309 311 312 313 316 319 324 330 332 333 334 337 335 335 336 331 328 331 331 332 332 334 331
288 290 288 289 290 292 288 294 293 292 290 289 290 287 292 298 297 301 304 306 308 311 314 316 317 319 320 324 330 333 333 334 336 336 336 335 334 332 332 331 332 331 332 333
290 295 293 291 292 293 294 291 292 293 291 283 289 288 290 295 298 301 305 307 310 314 316 318 321 324 322 330 332 333 332 333 335 335 336 335 334 332 329 329 329 330 331 333
288 289 293 294 289 292 292 288 282 281 282 282 291 288 291 298 301 303 306 310 313 316 317 319 320 322 322 326 330 326 328 330 331 333 335 335 334 332 330 329 328 329 329 329
281 280 287 291 289 288 289 288 283 277 279 283 290 286 291 300 302 305 310 312 314 316 319 320 322 324 324 326 327 322 325 326 326 330 333 333 333 330 329 328 328 327 328 328
281 281 290 292 294 292 288 286 291 286 288 284 287 291 296 300 301 306 309 311 313 316 319 321 323 324 324 323 321 321 323 324 323 327 330 329 330 329 327 328 329 329 329 326
286 279 289 291 295 295 291 292 285 287 279 278 285 288 289 295 298 304 306 309 313 317 318 319 320 321 320 319 320 320 322 322 323 327 328 328 328 329 328 328 328 328 326 324
288 285 284 288 288 287 288 287 288 288 287 281 280 286 297 298 300 302 306 310 313 315 317 317 316 316 316 319 319 319 319 320 321 325 326 327 326 327 326 327 328 327 324 321
288 285 281 283 291 295 295 289 289 283 283 286 286 287 302 302 304 305 308 311 314 315 315 315 315 314 312 311 316 317 318 319 321 322 323 325 324 325 326 326 326 326 322 320
288 284 278 283 287 290 289 291 290 290 290 285 283 286 302 303 305 307 309 310 312 312 313 313 313 311 309 306 306 307 316 318 319 321 321 322 322 324 325 324 325 322 319 317
291 285 281 277 282 285 283 288 291 290 286 286 287 289 297 300 302 307 307 310 311 312 312 311 310 309 307 304 304 304 306 308 318 320 320 320 320 321 323 325 325 323 320 317
289 282 284 285 286 287 288 289 289 289 289 286 290 290 296 301 304 307 309 309 308 308 308 308 308 308 306 304 302 303 304 305 308 312 318 319 322 323 324 324 324 324 321 319
290 283 285 283 288 288 287 290 290 289 290 291 291 290 297 301 305 307 308 309 306 307 307 306 306 306 306 304 300 301 302 302 304 304 309 321 321 322 322 323 324 323 322 321
287 285 284 279 286 285 284 288 290 291 293 292 289 295 302 300 297 306 307 306 304 305 306 305 304 304 304 305 302 299 299 301 300 300 301 303 317 318 320 322 322 321 322 322
287 285 285 280 283 276 287 293 294 292 293 295 295 296 300 303 303 304 304 302 302 304 304 303 303 303 303 304 305 303 298 297 297 296 296 297 300 304 314 318 320 321 321 321
292 287 283 279 280 284 287 290 290 289 291 298 297 300 300 299 302 298 300 302 302 302 303 303 302 301 301 301 302 302 299 294 294 293 293 294 296 297 300 307 318 320 320 320
291 291 285 282 277 275 286 291 295 295 287 296 297 299 298 300 293 292 299 301 300 301 301 301 301 300 299 299 300 299 296 293 290 290 291 292 294 293 295 298 301 311 319 319
284 285 282 283 281 283 291 293 297 284 285 296 292 298 297 293 292 295 298 299 299 299 298 301 299 297 296 296 298 296 294 291 290 290 291 291 290 292 293 294 298 301 306 299
281 281 282 284 280 278 294 292 286 291 297 294 295 297 296 298 297 295 295 296 297 297 297 297 297 295 294 294 294 293 291 291 290 289 289 289 289 289 289 291 292 294 294 289
281 284 282 283 284 291 292 290 294 295 293 292 297 301 299 295 294 294 293 294 294 294 294 295 294 293 292 292 291 290 290 291 290 288 287 286 287 287 288 287 288 288 288 287
287 291 285 285 288 287 286 288 290 292 291 292 295 298 297 295 294 293 291 291 292 291 291 292 292 290 289 290 289 289 290 290 288 286 285 286 284 284 285 286 285 286 285 285
286 288 285 285 288 288 288 287 288 289 289 291 290 295 294 293 291 292 290 290 290 290 290 290 289 287 287 288 287 287 288 289 286 285 285 284 284 283 282 282 283 283 283 284
288 284 282 281 286 285 286 287 288 286 287 287 289 290 292 292 291 290 288 287 286 286 286 286 285 285 284 285 284 284 286 287 286 283 283 283 283 283 282 281 280 283 282 282

GFSCGP_sfc_thetae_120.txt.gz
Theta_e
296 291 288 291 293 293 291 290 288 292 295 294 295 296 299 303 304 304 307 309 310 312 315 317 319 321 322 323 328 328 334 339 342 341 339 338 336 336 336 336 337 336 337 336
291 288 293 294 293 291 290 289 289 293 294 293 293 292 297 300 302 304 306 307 309 311 313 316 318 322 323 323 326 328 328 337 339 341 340 338 337 333 333 334 334 334 335 335
287 290 293 291 290 289 289 288 288 289 292 294 292 290 293 298 300 303 304 304 306 309 311 313 315 318 323 323 328 327 328 331 337 340 338 335 333 333 332 333 332 332 333 334
290 293 291 290 288 289 285 291 290 289 288 283 292 282 291 295 297 300 302 303 304 306 309 313 314 315 318 322 328 329 329 330 335 338 334 332 330 329 330 330 330 331 331 331
287 288 287 287 287 290 287 292 290 289 287 288 288 284 288 294 294 297 301 304 305 306 308 309 311 313 320 321 327 329 330 331 336 334 333 332 331 331 330 330 328 329 330 330
289 293 291 289 291 292 292 290 288 289 287 281 287 286 286 290 294 297 302 305 306 309 314 316 320 322 322 331 330 332 331 330 334 333 334 332 332 330 329 329 328 328 329 329
286 288 291 293 287 290 289 286 278 278 279 279 288 286 288 294 297 298 302 308 312 314 316 318 319 321 323 327 331 331 330 329 334 334 333 333 333 333 330 328 328 327 328 328
280 279 287 291 287 286 287 285 279 273 276 280 288 283 288 297 299 301 309 311 313 314 318 319 321 323 324 327 328 325 325 326 332 332 332 333 332 332 330 329 328 327 327 327
280 280 289 291 291 290 288 283 288 283 285 281 285 289 294 297 298 299 308 310 311 314 316 319 321 322 321 322 323 323 322 324 327 328 329 330 329 328 328 328 327 327 327 328
285 279 287 289 291 293 291 292 283 283 275 275 281 285 287 292 295 300 306 308 312 316 317 318 318 318 319 319 320 321 321 323 324 325 326 328 327 327 327 327 326 327 327 325
289 284 282 287 285 284 287 286 288 286 284 278 278 283 295 297 297 302 306 310 312 314 315 314 314 314 314 316 317 319 319 320 322 323 325 326 325 326 325 325 327 325 324 324
289 285 278 282 289 292 290 286 287 281 280 284 284 284 297 301 302 304 305 310 313 314 314 312 312 311 309 309 309 309 317 319 321 322 322 323 324 324 323 323 326 326 323 321
288 282 277 279 285 288 285 287 289 289 289 283 281 284 297 300 302 303 307 311 312 311 311 310 308 307 306 305 305 306 307 309 316 320 320 320 320 321 322 323 325 323 321 319
291 285 280 276 280 285 282 286 288 289 283 284 285 287 292 298 298 305 306 306 308 309 309 308 307 306 305 305 304 304 304 306 308 311 319 319 318 320 321 324 324 322 320 317
289 281 284 284 285 286 286 287 289 287 288 284 287 288 292 298 300 304 306 308 308 307 307 307 306 305 304 303 303 302 303 303 304 306 308 315 319 321 321 322 323 322 320 317
289 282 285 283 286 286 284 288 289 289 289 289 290 290 299 300 299 301 302 306 306 305 304 305 305 305 304 303 302 301 300 300 301 301 301 302 305 319 322 321 321 321 320 317
287 285 283 279 284 284 282 285 287 288 292 293 288 293 297 299 299 298 295 301 303 303 303 303 302 302 302 304 302 299 298 299 298 298 298 298 299 303 309 319 321 320 319 319
287 286 284 280 283 275 286 292 291 289 289 292 293 296 299 297 298 300 300 300 300 301 301 301 301 300 301 302 302 301 299 296 295 295 295 296 296 297 300 305 317 319 319 318
291 287 282 279 279 282 286 289 288 287 288 291 292 294 297 298 298 296 299 300 300 301 301 300 300 299 299 299 300 299 297 295 293 292 292 293 294 294 296 297 301 307 317 317
290 290 284 282 277 275 284 290 294 295 284 292 293 292 295 299 287 291 297 298 298 299 299 298 298 297 296 296 298 296 294 293 290 290 291 292 292 292 292 293 295 300 305 316
283 284 281 281 280 283 287 291 295 279 282 292 290 292 291 287 292 295 297 297 298 297 297 298 296 293 293 294 295 293 291 290 291 290 290 290 290 290 290 291 294 295 300 296
281 280 280 281 279 277 288 289 283 287 291 290 288 293 294 294 294 294 294 294 294 294 294 295 294 292 292 291 292 290 288 290 290 290 288 288 287 287 288 289 290 291 291 289
281 284 282 283 282 287 288 286 288 290 289 289 288 295 295 293 292 292 292 292 292 292 292 292 291 290 290 290 289 288 288 289 288 287 286 286 285 285 285 285 285 287 287 287
286 289 284 284 286 286 286 287 287 288 287 290 289 293 293 291 291 290 290 290 289 289 289 289 288 287 286 287 287 287 288 288 286 285 284 284 283 282 282 284 284 284 285 285
287 288 284 285 286 286 288 286 286 287 287 287 290 290 291 291 289 288 286 286 286 286 286 286 285 284 284 284 284 285 286 287 285 283 283 283 282 281 281 281 281 281 282 283
289 285 282 281 286 284 286 287 287 288 286 287 287 288 289 290 287 285 284 283 283 282 283 282 282 282 282 282 282 283 285 286 284 282 282 282 282 281 280 279 279 283 282 282

GFSCGP_sfc_thetae_126.txt.gz
Theta_e
288 282 279 281 284 285 284 283 282 285 289 286 285 286 288 291 292 292 293 296 298 301 307 309 311 311 308 307 316 332 334 337 339 337 334 333 332 333 334 334 335 335 335 333
283 280 287 288 287 285 284 281 281 285 288 287 285 285 288 290 291 292 293 294 297 297 300 302 307 309 309 308 306 327 334 336 339 338 337 336 335 332 334 334 333 334 334 334
280 285 290 287 285 283 283 281 281 282 286 287 285 282 285 290 291 293 294 295 297 297 297 301 303 305 307 309 306 319 332 336 339 338 336 330 328 327 329 332 333 334 335 335
284 289 287 285 283 284 279 286 285 283 281 276 284 274 283 287 288 291 293 295 296 297 299 301 303 304 307 308 311 317 331 335 339 338 335 332 331 329 331 332 333 332 334 333
282 285 284 282 283 286 283 286 284 284 282 280 280 277 281 286 285 288 292 295 294 297 298 300 301 304 308 309 315 324 331 335 337 337 335 333 331 331 329 330 328 331 331 332
284 288 285 285 287 286 287 285 284 284 282 275 280 278 278 282 285 289 292 295 295 296 298 301 301 303 308 310 314 318 329 333 335 336 335 333 330 327 326 327 327 328 329 329
283 283 286 288 283 285 284 281 275 273 273 273 282 280 280 286 289 291 292 294 294 295 301 304 307 315 315 316 318 321 324 325 330 333 333 332 330 328 327 327 326 326 326 326
276 275 282 287 283 281 282 282 277 271 273 275 283 276 280 288 291 293 295 295 303 311 312 311 313 314 315 316 315 317 320 323 325 325 328 329 328 328 327 327 326 325 326 326
277 277 286 286 286 285 283 279 285 280 282 277 278 281 286 289 290 293 294 294 309 309 309 310 311 311 312 313 314 315 317 319 322 324 324 324 325 326 326 325 325 325 326 326
281 275 283 285 287 288 286 287 279 281 274 272 275 276 278 285 288 292 296 298 304 308 308 309 308 309 309 310 312 313 315 317 319 323 326 327 325 325 327 325 325 326 326 326
282 279 280 283 280 279 280 281 283 283 281 276 273 276 291 293 298 300 303 303 302 306 306 306 306 307 307 308 308 309 310 312 315 321 323 325 324 323 325 324 325 326 325 325
283 278 275 278 284 286 283 282 283 278 276 280 279 279 294 294 298 297 299 304 305 305 304 305 304 305 304 304 304 305 306 308 312 318 320 321 324 324 323 323 323 323 323 323
282 276 273 275 280 284 281 283 284 285 284 279 276 279 294 297 299 299 298 300 303 303 302 302 301 301 300 300 301 302 302 303 307 312 318 318 319 322 320 322 323 322 321 319
287 279 273 270 275 279 277 282 285 285 280 280 281 284 291 295 296 297 298 298 304 302 301 300 299 299 299 299 298 299 299 301 303 305 307 308 309 317 320 322 322 320 319 317
282 274 276 279 280 281 282 283 283 283 283 280 283 286 289 293 295 296 297 296 295 299 301 300 299 299 298 297 297 296 296 297 299 299 300 301 305 310 315 320 320 319 318 317
282 275 279 278 281 283 282 284 284 285 284 283 283 284 290 296 297 296 296 295 295 294 295 298 299 299 297 296 295 294 293 293 295 295 295 297 300 303 306 308 316 318 317 315
279 278 277 275 280 281 280 281 282 284 284 284 279 284 288 294 295 295 296 295 295 294 294 293 292 293 296 294 294 292 292 294 293 293 293 294 295 297 299 302 306 317 316 315
279 279 278 275 279 269 281 286 285 283 285 285 284 285 288 292 292 293 296 296 294 293 292 291 290 290 293 293 291 291 291 291 291 291 291 291 292 293 295 297 299 301 307 314
286 283 278 277 276 280 280 282 281 280 282 285 284 285 288 292 291 288 291 293 292 291 290 289 289 289 291 290 290 289 288 289 289 288 288 289 289 290 291 291 293 297 299 305
286 285 279 277 273 272 278 283 286 286 278 285 285 285 286 288 280 283 289 289 290 290 289 288 287 287 287 288 288 287 286 286 287 287 287 287 287 288 288 289 290 292 296 300
279 278 277 276 274 277 282 284 286 277 276 285 285 287 288 283 286 288 289 287 287 287 287 287 286 284 284 286 287 286 285 285 287 287 286 285 285 286 286 288 289 290 291 290
277 276 272 275 273 270 284 283 277 281 285 286 286 288 288 288 287 286 286 285 284 284 284 285 283 282 283 284 286 285 284 286 286 285 284 284 283 284 284 284 286 288 288 286
272 277 274 276 276 285 285 283 285 287 285 286 287 289 289 287 286 285 283 283 283 282 282 283 281 281 283 284 284 284 285 285 284 283 282 282 282 282 282 281 281 283 286 286
280 285 277 280 283 284 284 286 286 287 285 287 288 288 288 285 284 283 282 281 281 281 280 281 281 280 281 283 284 284 285 285 283 282 281 281 281 281 281 281 281 280 281 284
277 279 276 279 283 284 284 284 284 286 287 286 287 288 287 285 282 282 280 280 280 280 280 280 279 279 280 282 282 284 284 284 282 281 281 281 280 280 280 280 280 280 281 282
281 276 274 273 283 282 284 285 285 285 285 287 285 285 288 285 282 281 280 279 278 278 278 278 278 278 279 280 281 283 284 283 282 281 280 280 280 279 279 279 279 283 282 283

GFSCGP_sfc_thetae_129.txt.gz
Theta_e
286 282 279 280 282 283 282 280 279 282 285 283 284 284 287 290 290 290 291 292 293 294 297 300 303 307 305 303 309 326 333 336 337 337 334 333 333 333 334 336 336 335 334 332
282 279 284 286 285 283 282 280 279 283 286 286 284 283 287 288 289 290 290 291 292 293 295 298 301 300 305 305 305 315 329 335 337 337 336 335 335 334 334 336 336 335 333 332
280 284 288 286 283 282 280 279 280 280 284 285 283 281 284 288 289 291 292 293 293 294 294 296 298 300 300 302 303 312 325 332 337 338 337 332 329 330 332 332 334 335 333 332
283 287 285 283 281 283 278 284 283 281 279 275 283 273 281 286 287 289 290 291 292 294 295 296 298 299 300 301 305 307 321 331 336 337 335 332 331 329 332 333 334 334 335 333
280 283 282 280 282 284 280 285 283 282 279 278 279 275 280 286 284 287 289 291 292 293 294 295 298 301 302 303 306 306 316 329 334 337 335 333 332 332 331 334 333 332 334 334
283 286 284 283 285 285 286 283 283 282 279 273 278 277 279 283 285 288 290 291 292 293 294 296 299 301 298 309 309 317 317 329 334 336 335 333 332 330 329 331 331 331 331 332
281 282 285 286 282 283 282 279 274 273 273 273 282 280 281 287 289 289 290 290 292 293 292 293 295 297 309 313 314 317 326 329 334 335 334 333 333 330 329 329 328 329 328 329
275 274 281 286 281 279 279 281 275 269 271 274 282 277 281 289 295 296 295 292 299 305 307 310 311 312 314 314 316 319 323 324 332 334 333 333 329 329 328 328 329 328 328 328
276 276 283 284 285 283 280 277 283 278 279 276 277 281 285 291 296 298 298 301 304 307 307 309 309 311 313 314 314 317 321 323 324 325 324 326 328 328 327 328 328 327 328 327
280 274 282 284 285 286 284 285 277 280 272 270 275 278 279 286 292 296 297 297 298 304 307 307 307 308 308 310 311 312 315 318 321 324 325 325 324 325 326 326 325 324 325 324
280 278 278 281 278 277 278 277 280 281 278 274 273 276 287 291 294 295 297 298 302 304 306 307 305 305 306 307 308 308 310 312 316 320 322 324 324 325 324 325 324 324 324 325
281 277 274 277 283 285 282 281 281 276 275 278 278 277 293 295 296 297 296 299 303 303 303 303 302 301 301 301 302 303 305 306 309 317 318 320 323 321 321 322 323 324 324 325
282 275 271 274 278 281 279 281 283 285 283 278 277 277 292 292 295 298 296 297 300 301 301 299 299 298 297 297 298 298 300 301 304 308 310 311 312 321 321 320 321 322 322 322
286 278 271 267 273 277 275 279 283 283 277 278 279 280 288 287 290 295 295 295 294 294 298 298 297 296 296 296 295 295 296 298 299 301 302 302 305 309 318 321 321 319 320 319
281 273 276 278 280 279 278 280 282 281 282 278 279 280 285 286 290 295 296 295 294 293 292 293 295 294 293 293 293 294 294 295 296 297 297 297 301 305 307 310 318 320 318 318
280 274 278 276 280 280 278 283 281 284 283 281 281 280 286 290 292 295 295 294 293 292 290 290 292 293 291 290 290 291 292 293 294 294 293 295 296 299 300 303 307 316 318 316
278 277 276 274 279 279 278 278 280 281 284 282 277 282 286 286 286 287 291 291 290 290 288 287 289 289 289 289 289 289 290 292 291 291 291 292 293 294 295 298 301 303 307 315
279 278 277 274 278 267 278 286 283 281 284 283 284 284 286 287 287 287 288 287 287 286 286 286 286 288 288 288 288 288 288 290 289 289 289 289 290 291 292 294 295 297 300 304
282 280 275 275 275 278 280 283 280 279 280 283 283 285 287 288 286 285 287 287 286 286 286 285 285 285 286 287 287 287 286 287 287 287 286 287 287 288 289 289 291 293 295 298
285 283 278 276 272 267 276 283 284 284 275 282 284 283 286 286 279 282 287 286 285 285 285 284 284 284 284 285 288 286 285 285 285 285 285 286 286 286 286 286 288 291 293 295
278 278 276 275 275 275 281 283 284 275 273 283 285 286 286 283 284 286 287 285 284 284 283 284 283 282 283 285 286 285 284 283 285 285 285 284 284 285 285 283 285 288 289 289
276 274 270 274 272 269 283 283 277 281 284 285 285 287 286 285 287 285 284 283 282 281 281 282 281 282 283 284 285 284 283 284 285 284 283 283 283 283 283 282 282 285 287 286
273 276 273 275 274 282 284 283 285 286 284 284 286 287 287 284 284 283 281 281 281 281 280 281 281 281 282 283 284 282 283 284 284 283 282 282 282 282 282 281 281 282 284 285
279 284 277 279 280 282 283 286 285 285 286 286 287 287 286 283 283 282 281 279 280 280 279 280 280 279 280 282 283 283 284 284 283 282 281 281 281 281 281 281 281 280 280 281
276 278 276 279 282 284 285 285 283 285 287 287 286 286 285 283 281 281 280 278 278 278 278 278 278 278 278 280 282 283 283 283 282 281 281 280 280 280 280 281 280 280 281 281
279 275 273 273 281 280 283 285 284 283 284 287 283 283 285 283 280 280 279 279 277 277 277 277 277 277 277 278 281 282 282 282 281 280 279 279 279 279 278 279 280 283 282 283

GFSCGP_sfc_thetae_132.txt.gz
Theta_e
286 283 279 280 281 282 281 278 277 280 283 281 281 283 285 288 288 288 289 290 291 292 295 296 297 297 298 302 304 315 331 334 335 334 332 331 330 330 332 333 333 333 333 332
282 279 283 285 283 282 280 278 277 281 283 283 281 281 284 287 287 289 289 290 291 292 293 295 295 294 297 301 304 305 327 333 335 336 335 334 333 333 333 334 333 333 334 332
279 283 287 284 281 280 279 277 277 279 282 282 280 279 282 287 289 291 293 293 293 292 292 294 295 295 295 296 301 304 309 331 335 337 336 332 335 333 332 332 332 332 333 332
282 286 284 282 280 280 276 282 281 280 277 272 281 271 281 285 287 290 293 295 293 293 294 294 295 295 295 295 299 303 306 317 333 336 335 333 331 330 332 332 333 333 334 333
280 282 281 280 281 282 279 283 281 280 278 275 276 273 278 285 285 288 294 296 297 294 294 293 294 295 297 297 296 301 303 312 325 335 335 333 331 332 332 333 333 333 333 333
282 285 284 283 285 283 285 281 280 280 277 272 277 276 278 281 285 290 296 298 300 301 293 293 295 296 296 294 300 301 302 311 324 333 335 333 332 330 329 331 331 331 331 333
281 281 284 285 279 282 281 278 272 272 272 272 279 277 279 286 289 295 296 298 298 302 300 297 296 294 292 299 303 308 305 310 324 331 334 334 332 332 330 331 331 329 330 332
275 274 280 284 279 277 279 278 270 262 270 272 279 274 279 288 293 297 299 298 301 302 307 308 308 310 309 310 312 315 319 321 325 332 334 334 333 332 331 331 332 331 331 332
275 275 283 283 283 281 277 275 281 270 277 274 276 279 285 292 293 297 297 298 298 303 305 304 305 306 308 311 314 321 324 325 330 333 333 332 331 330 330 330 330 332 331 331
280 274 281 283 284 283 281 283 273 276 268 269 273 276 279 285 288 292 295 297 298 300 301 301 302 302 304 305 307 311 315 317 321 325 329 329 330 328 329 329 328 329 330 328
281 278 278 280 276 276 277 275 278 279 276 272 272 276 285 287 289 290 295 297 296 296 297 298 299 301 301 301 301 303 306 309 313 320 323 324 325 325 324 324 325 326 326 325
281 278 274 275 281 283 281 279 279 273 271 278 277 276 289 287 291 291 293 294 294 293 293 294 294 298 298 297 297 297 299 302 305 309 313 316 321 324 323 323 322 322 322 323
282 275 269 273 276 279 277 279 281 281 280 276 274 276 289 288 289 292 294 294 293 292 291 291 290 291 293 294 294 295 295 297 300 303 304 307 309 312 319 321 322 322 322 323
286 278 269 265 270 276 274 278 279 280 276 277 278 278 283 284 285 293 294 293 290 289 287 288 287 289 289 291 292 293 293 295 296 297 298 300 302 305 309 317 320 320 322 321
280 272 275 277 278 277 278 277 280 273 279 277 278 279 283 285 284 288 289 289 288 287 286 286 286 286 288 288 289 291 292 293 294 294 294 294 297 300 302 305 310 319 318 319
279 273 277 275 278 278 277 281 280 280 282 280 280 280 286 288 287 285 286 286 285 285 285 285 286 286 286 287 287 288 290 290 291 291 291 292 294 295 297 299 302 305 313 316
278 276 275 273 278 278 274 278 278 275 282 281 276 281 286 286 284 284 285 286 285 284 284 284 284 284 286 287 287 286 287 289 289 289 289 290 291 292 293 295 297 299 301 307
278 278 277 274 277 266 277 284 282 279 282 282 282 284 285 286 287 286 285 284 284 283 283 283 283 283 284 286 287 287 287 286 287 286 287 287 288 289 290 291 292 294 297 300
281 279 274 272 275 277 277 281 279 278 277 282 281 284 286 286 288 286 286 285 284 283 283 283 283 284 284 285 287 285 285 285 285 284 285 285 286 287 287 287 288 291 293 296
281 282 280 276 273 266 276 282 283 283 274 282 283 283 284 284 277 281 285 284 283 283 283 282 282 284 283 284 286 285 283 284 283 283 284 284 285 285 284 283 286 289 291 291
278 279 276 275 273 275 280 282 284 275 272 283 284 284 285 282 284 285 285 284 283 282 281 282 282 282 282 284 285 283 283 282 284 284 284 283 283 284 284 284 285 287 288 288
276 273 270 274 272 269 282 281 277 279 284 284 284 286 286 285 285 284 282 281 281 280 280 281 281 281 282 283 283 282 282 283 284 283 282 282 282 283 283 283 283 285 286 286
272 275 274 275 274 281 282 281 284 284 284 284 284 287 287 284 283 282 281 279 279 279 278 280 279 280 281 282 283 281 282 283 283 282 281 281 282 282 282 281 281 282 283 282
279 282 277 279 279 281 282 284 284 283 283 286 286 287 287 283 282 281 280 278 278 278 277 278 278 278 278 280 282 282 282 283 282 281 280 281 280 281 281 281 281 280 280 280
275 278 275 279 281 282 283 283 282 282 285 286 286 285 285 283 280 279 279 277 277 277 277 277 277 277 277 278 280 281 281 282 281 280 280 280 280 280 280 281 281 280 281 281
278 273 272 271 279 280 281 283 283 282 285 284 283 282 283 282 279 279 276 278 277 276 276 276 276 276 276 277 278 279 280 279 280 279 279 279 279 278 278 278 279 281 281 283

GFSCGP_sfc_thetae_135.txt.gz
Theta_e
290 287 284 285 287 286 284 282 281 284 287 285 285 285 287 290 291 291 292 294 295 299 302 303 303 304 304 305 305 307 312 324 337 337 332 331 330 333 335 335 335 334 334 334
287 284 287 288 286 284 283 281 280 284 286 285 285 284 288 290 291 293 294 296 300 301 304 306 307 304 304 304 305 307 310 315 334 336 336 336 334 333 334 335 334 334 334 334
284 286 288 286 284 282 282 280 281 281 284 286 284 284 286 292 293 295 296 300 302 303 303 305 307 306 304 303 304 305 307 312 332 336 336 336 336 336 333 333 332 333 334 334
286 288 285 284 283 283 279 284 283 282 281 277 284 278 285 288 290 293 295 300 302 303 304 307 308 309 303 304 305 305 306 310 327 338 336 333 332 330 332 333 334 334 334 333
283 285 284 282 283 285 282 286 283 283 281 280 281 279 284 288 288 291 297 300 302 303 305 305 310 307 303 304 304 305 306 309 318 336 339 336 336 336 337 334 334 333 332 333
285 288 287 285 287 285 286 284 284 283 282 276 281 280 281 285 288 293 296 300 302 303 304 307 308 312 305 304 305 305 305 307 314 336 339 338 337 336 335 334 333 331 331 332
283 284 287 288 283 285 285 282 276 275 276 275 282 279 282 288 293 293 295 297 300 301 301 303 301 303 308 313 303 304 304 306 314 332 337 339 338 338 335 334 334 331 331 331
278 276 284 286 284 280 282 282 276 270 272 275 281 277 283 291 293 295 295 297 298 296 296 299 297 300 301 306 316 306 306 308 317 330 337 339 339 338 336 336 337 334 332 333
278 278 285 286 286 285 281 280 284 277 278 275 279 283 288 290 290 291 293 294 292 292 293 293 293 294 298 299 304 316 320 315 320 330 337 338 339 336 336 337 339 335 334 333
282 277 283 284 287 285 284 285 278 280 271 270 277 279 280 284 286 288 290 292 290 289 291 290 292 291 294 298 299 302 310 314 320 330 336 337 337 335 335 336 336 336 335 333
284 281 280 282 281 280 282 281 280 281 279 273 273 279 287 286 287 287 290 290 289 288 287 289 289 291 291 294 296 297 301 306 308 311 323 332 332 333 334 334 335 335 333 331
284 282 276 278 283 285 283 282 282 277 273 279 278 279 290 289 288 288 290 290 289 289 287 287 287 288 288 290 292 294 296 299 302 305 307 313 318 323 326 327 326 328 328 327
285 279 273 275 280 282 281 282 282 281 280 277 276 279 290 289 288 288 287 289 289 288 287 286 286 286 286 288 290 291 293 295 297 300 300 303 305 308 312 323 328 327 326 324
288 280 277 273 275 279 277 279 281 282 277 279 280 280 285 285 286 286 287 288 288 287 285 285 285 284 286 287 288 288 291 292 293 294 295 297 298 300 303 308 315 323 324 324
284 278 278 279 279 279 279 279 280 279 280 278 281 280 283 285 286 287 287 287 286 285 285 284 283 284 285 285 286 287 289 290 291 291 292 293 296 298 300 302 305 312 321 322
282 276 278 276 280 279 277 280 282 281 282 282 281 281 286 288 289 286 286 285 284 284 284 283 283 283 284 285 286 286 287 288 289 289 289 290 292 294 296 298 300 302 306 315
280 278 277 274 280 280 276 280 280 280 282 281 277 282 285 285 286 285 284 284 283 283 283 283 282 283 284 285 287 286 287 288 288 288 288 288 289 290 291 294 295 297 300 306
280 279 279 276 279 271 280 285 284 281 282 282 282 282 284 285 287 287 287 284 283 282 282 282 283 283 284 285 286 287 287 287 287 286 286 287 287 288 288 290 291 293 296 298
283 281 278 276 276 279 281 284 281 279 280 282 281 282 284 286 287 286 286 285 283 283 283 283 283 284 284 284 286 286 286 286 286 285 285 285 286 287 288 287 288 290 293 294
282 285 281 278 273 271 279 283 285 284 277 283 284 282 283 285 279 282 285 284 283 283 283 282 283 284 284 284 285 284 284 284 283 284 284 285 285 285 285 286 287 290 291 290
278 278 276 277 276 279 283 284 286 276 278 284 284 284 284 281 283 285 285 283 283 282 281 282 282 282 283 284 285 283 283 282 284 284 284 284 285 285 285 286 287 287 289 289
278 277 276 277 275 273 285 283 280 283 285 285 285 285 285 285 285 284 283 281 281 280 280 281 281 281 282 283 283 282 281 283 284 283 283 283 284 284 284 284 285 285 286 286
278 281 279 280 280 284 286 285 286 286 284 286 286 287 286 284 282 282 282 280 280 280 279 280 280 280 281 282 282 281 281 283 283 282 282 282 283 284 284 283 282 283 284 283
282 284 282 282 282 284 285 286 287 286 285 288 287 287 286 283 282 281 281 280 279 279 279 279 279 279 280 281 281 281 281 283 283 281 281 282 282 282 283 283 283 281 281 281
282 284 281 281 284 285 285 286 286 285 287 287 286 286 285 283 281 280 279 279 279 278 278 279 278 278 279 280 280 281 281 282 281 281 281 281 281 281 282 281 281 281 281 282
282 279 280 280 283 285 285 286 286 285 285 285 283 282 283 283 280 280 279 278 278 277 277 277 277 278 278 279 280 281 282 282 280 280 280 280 280 280 281 281 281 281 280 280